www.pogodaiklimat.ru

Погода и климат >> Архив погоды >> Россия >> Северная Осетия >> Владикавказ


АРХИВ ПОГОДЫ в Владикавказе

Время (UTC), дата Ветер
(напр.,м/с)
 
Видим.   Явления Облачность Т
(С)
Тd
(С)
f
(%)
Тe
(С)
Тes
(С)
Комфортность P
(гПа)
Po
(гПа)
Тmin
(С)
Tmax
(С)
R
(мм)
R24
(мм)
S
(см)
21 18.06 штиль 0 10 км 9/9 600 м
[Sc]
+14.9 +12.9 88 +15 +15 по сезону 1010.4 930.7
00 19.06 штиль 0 10 км 9/9 600 м
[Sc]
+15.1 +12.9 87 +15 +15 по сезону 1010.3 930.6
03 19.06 штиль 0 50 км 6/0
[Ac trans Cc]
+15.2 +12.6 84 +15 +17 прохладно 1011.3 931.5 +14.1
06 19.06 С 1 10 км 10/10 600 м
[Cb calv]
+18.6 +11.5 63 +20 +20 по сезону 1011.7 932.8
09 19.06 З 1 20 км 10/10 600 м
[Sc]
+20.6 +12.2 59 +24 +24 комфорт 1011.5 933.2
12 19.06 штиль 0 20 км 10/10 600 м
[Sc]
+22.1 +11.1 50 +24 +24 комфорт 1011.0 933.0
15 19.06 З 2 20 км 10/10 600 м
[Sc]
+21.0 +12.2 57 +24 +24 комфорт 1011.6 933.2 +22.0
18 19.06 Ю 1 10 км в посл. час ливневой дождь 10/10 600 м
[Sc]
+18.2 +13.0 72 +20 +20 тепло 1013.8 934.6
21 19.06 Ю 2 10 км {ливн. осадки} 10/10 600 м
[Sc]
+16.4 +13.2 81 +17 +17 по сезону 1013.6 933.9
00 20.06 Ю 2 10 км {ливн. осадки} 10/10 600 м
[Sc]
+16.5 +13.1 80 +17 +17 по сезону 1013.6 933.4
03 20.06 Ю 1 20 км 10/10 600 м
[Sc]
+17.2 +13.6 79 +18 +18 по сезону 1013.3 934.1 +16.1 0.0 530
06 20.06 ЮЗ 1 20 км 9/4 600 м
[Sc Ac trans]
+19.7 +12.4 63 +22 +27 комфорт 1012.9 934.3
09 20.06 В 2 20 км 3/3 1000 м
[Cu med, cong]
+24.5 +10.7 42 +26 +40 жарко 1012.5 935.1
12 20.06 В 2 20 км 4/3 1000 м
[Cu med, cong Ac trans Cc]
+26.3 +9.2 34 +27 +35 жарко 1011.7 934.8
15 20.06 В 1 20 км 3/1 600 м
[Cu hum Ci fib]
+25.3 +8.9 35 +26 +27 жарко 1012.3 935.0 +26.6
18 20.06 Ю 1 10 км 1/0
[Ci fib]
+17.9 +10.5 62 +19 +19 по сезону 1015.5 936.0
21 20.06 ЮВ 3 10 км ясно +17.9 +8.8 55 +18 +18 по сезону 1015.6 936.1
00 21.06 ЮВ 2 10 км ясно +16.5 +8.2 58 +17 +17 тепло 1015.8 935.8
03 21.06 ЮВ 3 50 км ясно +18.1 +7.5 50 +18 +20 по сезону 1015.3 935.8 +16.2
06 21.06 Ю 1 50 км ясно +25.2 +7.8 33 +25 +40 комфорт 1013.4 935.8
09 21.06 ЮЗ 1 50 км 3/3 1000 м
[Cu hum]
+28.3 +6.3 25 +27 +44 жарко 1011.8 935.1
12 21.06 З 2 20 км 3/3 600 м
[Cu med, cong]
+29.1 +5.8 23 +28 +37 жарко 1010.5 934.0
15 21.06 СЗ 2 20 км 3/3 600 м
[Cu hum]
+28.4 +4.0 21 +27 +28 жарко 1010.3 933.7 +30.1
18 21.06 Ю 1 10 км ясно +19.8 +10.2 54 +22 +22 комфорт 1013.5 934.6
21 21.06 ЮВ 2 10 км ясно +19.5 +7.9 47 +21 +21 комфорт 1012.7 933.7
00 22.06 ЮВ 3 10 км ясно +18.7 +7.7 49 +19 +19 тепло 1012.0 932.9
03 22.06 Ю 2 50 км ясно +19.2 +8.5 50 +21 +22 комфорт 1011.9 933.0 +17.1
06 22.06 ЮВ 1 50 км 4/3 1000 м
[Cu hum Ci fib]
+27.4 +7.9 29 +27 +37 жарко 1009.4 932.7
09 22.06 ЮВ 2 50 км 4/0
[Ac As Cc]
+29.4 +5.0 21 +28 +43 жарко 1007.6 931.4
12 22.06 ЮВ 2 50 км 4/0
[Ac lent Ci fib]
+30.2 +6.7 23 +29 +38 жарко 1006.0 930.2
15 22.06 Ю 2 20 км 8/3 600 м
[Cb calv As op]
+25.6 +10.3 38 +26 +27 жарко 1007.0 930.1 +31.1
18 22.06 ЮВ 3 10 км {гроза, ливн. осадки} 8/4
[Sc Ac As]
+21.5 +12.1 55 +24 +24 комфорт 1008.4 930.4
21 22.06 ЮВ 3 10 км 3/0
[Ac trans]
+20.0 +11.2 57 +22 +22 комфорт 1008.2 929.8
00 23.06 Ю 2 10 км ясно +17.8 +10.3 61 +18 +18 тепло 1008.6 929.6
03 23.06 Ю 2 50 км ясно +19.3 +9.5 53 +21 +22 комфорт 1008.3 929.7 +17.3 0.0
06 23.06 В 1 50 км 1/0
[Ac lent]
+26.4 +8.9 33 +27 +40 жарко 1006.1 929.4
09 23.06 ЮЗ 2 20 км 8/3 600 м
[Cu hum Ac trans]
+28.6 +11.4 34 +29 +37 жарко 1005.0 929.0
12 23.06 20 км 8/8 600 м
[Cu med, cong]
+28.4 +12.4 37 1004.0 928.1
15 23.06 Ю 1 20 км 10/10 600 м
[Cb calv]
+26.1 +14.5 49 +29 +29 жарко 1005.0 928.5 +30.1
18 23.06 З 1 10 км 8/8 600 м
[Sc]
+23.6 +13.6 53 +26 +26 жарко 1007.8 930.4
21 23.06 Ю 1 10 км 3/0
[Ac trans]
+19.1 +12.9 67 +21 +21 комфорт 1008.9 930.2
00 24.06 Ю 1 10 км ясно +17.0 +12.4 74 +18 +18 тепло 1010.3 931.0
03 24.06 ЮВ 1 50 км ясно +18.5 +12.5 68 +20 +22 тепло 1012.1 933.1 +16.0
06 24.06 З 2 50 км ясно +23.2 +13.4 54 +26 +39 жарко 1010.9 933.2
09 24.06 З 1 10 км 8/6 600 м
[Cu med, cong Ac As Ci]
+25.2 +14.0 50 +28 +34 жарко 1010.9 933.7
12 24.06 З 3 10 км 8/6 600 м
[Cb calv Ac cuf Ci]
+26.8 +12.6 41 +28 +31 жарко 1010.5 933.6
15 24.06 ЮВ 1 10 км в посл. час гроза 10/10 600 м
[Cb cap]
+22.6 +15.7 65 +27 +27 душно 1012.2 934.3 +27.7
18 24.06 Ю 1 10 км в посл. час ливневой дождь {гроза} 8/3 600 м
[Sc diur, vesp Ac As]
+18.6 +15.8 84 +21 +21 комфорт 1014.9 935.8
21 24.06 Ю 1 10 км 3/0
[Ac As]
+17.4 +14.3 82 +18 +18 тепло 1015.2 935.7
00 25.06 Ю 1 10 км 6/6 600 м
[Sc]
+16.7 +13.5 81 +18 +18 тепло 1015.1 935.4
03 25.06 Ю 1 20 км 4/0
[Ac trans]
+17.0 +13.2 78 +18 +19 по сезону 1015.4 935.8 +16.3 0.6
06 25.06 З 1 10 км 3/0
[Ac As]
+24.6 +13.7 51 +27 +38 жарко 1013.0 935.5
09 25.06 ЮВ 2 20 км 8/4 600 м
[Cb calv Ac trans]
+26.7 +14.4 47 +29 +36 жарко 1011.7 934.8
12 25.06 З 2 20 км 9/5 600 м
[Cu med, cong Ac As]
+28.0 +14.7 44 +30 +33 жарко 1011.3 934.6
15 25.06 Ю 1 20 км 8/1 1500 м
[Cb calv Ac trans]
+25.2 +16.0 57 +29 +29 душно 1011.6 934.3 +28.2
18 25.06 Ю 1 10 км 3/0
[Ac trans]
+20.9 +17.1 79 +26 +26 душно 1012.9 934.4

 

Местоположение метеостанции Владикавказ (Северная Осетия, Россия): широта 43.03 долгота 44.68 высота над уровнем моря 703 м.

В архиве по умолчанию представлена погода в Владикавказе за последнюю неделю. Архивные данные за месяц целиком и за предыдущие месяцы, начиная с января 2011 года, Вы можете получить, выбрав интересующий диапазон дат из раскрывающегося списка и нажав кнопку "Ввод!".


*Определитесь, кто Вы:
робот инопланетянин человек

Внимание! Время в таблицах - всемирное. Для получения местного времени необходимо прибавить поправку, которая в Владикавказе равна 3 ч.

Смотрите также архив погоды в соседних городах и на ближайших метеорологических станциях:

Погода в Назрани (Ингушетия, Россия) (19 км)
Погода в Алагире (Северная Осетия, Россия) (35 км)
Погода в Рокском Перевале (Северная Осетия, Россия) (66 км)
Погода в Наре (Северная Осетия, Россия) (68 км)
Погода в ?????????? (Грузия) (76 км)
Погода в Моздоке (Северная Осетия, Россия) (78 км)
Погода в Шатое (Чечня, Россия) (83 км)
Погода в Наурской (Чечня, Россия) (86 км)
Погода в Грозном (Чечня, Россия) (88 км)
Погода в Прохладный (Кабардино-Балкария, Россия) (95 км)

Пояснения к столбцам:

Ветер - указаны скорость ветра в м/с - средняя за 10 мин, порывы в срок и между сроками (в фигурных скобках) и направление, откуда дует ветер: С - северный, СВ - северо-восточный, В - восточный, ЮВ - юго-восточный, Ю - южный, ЮЗ - юго-западный, З - западный, СЗ - северо-западный.
Видимость - горизонтальная дальность видимости в метрах или километрах. При видимости от 1 до 10 км при отсутствии осадков обычно наблюдается дымка, при ухудшении видимости до 1 км и менее - туман. В сухую погоду видимость может ухудшаться дымом, пылью или мглою.
Явления - указаны атмосферные явления, наблюдавшиеся в срок или в последний час перед сроком; фигурными скобками обозначены явления, наблюдавшиеся между сроками (за 1-3 часа до срока); квадратными скобками обозначены град или гололедные отложения с указанием их диаметра в мм.
Облачность - указаны через наклонную черту общая и нижняя облачность в баллах и высота нижней границы облаков в метрах; квадратными скобками обозначены формы облаков: Ci - перистые, Cs - перисто-слоистые, Cc - перисто-кучевые, Ac - высококучевые, As - высокослоистые, Sc - слоисто-кучевые, Ns - слоисто-дождевые, Cu - кучевые, Cb - кучево-дождевые. Подробнее классификацию облаков см. в Атласе облаков (PDF).
T - Температура воздуха - температура, измеренная на высоте 2 м над землей.
Td - Температура точки росы - температура, при понижении до которой содержащийся в воздухе водяной пар достигнет насыщения.
f - Относительная влажность воздуха - влажноcть воздуха, измеренная на высоте 2 м над землей.
Te - Эффективная температура - температура, которую ощущает одетый по сезону человек в тени. Характеристика душности погоды. При расчете учитывается влияние влажности воздуха и скорости ветра на теплоощущения человека.
Tes - Эффективная температура на солнце - температура, которую ощущает человек, с поправкой на солнечный нагрев. Характеристика знойности погоды. Зависит от высоты солнца над горизонтом, облачности и скорости ветра. Ночью, в пасмурную погоду, а также при ветре 12 м/с и более поправка равна нулю.
P - Атмосферное давление - приведенное к уровню моря атмосферное давление.
Po - Атмосферное давление - измеренное на уровне метеостанции атмосферное давление.
Tmin - Минимальная температура - минимум температуры воздуха на высоте 2 м над землей.
Tmax - Максимальная температура - максимум температуры воздуха на высоте 2 м над землей.
R - Количество осадков - Количество выпавших осадков за период времени, мм. При наведении курсора мыши на число - период времени, за который выпало указанное количество осадков.
R24 - Количество осадков - Количество выпавших осадков за 24 часа, мм.
S - Снежный покров - Высота снежного покрова, см. При наведении курсора мыши на число - состояние снежного покрова и степень покрытия местности в баллах.